Location: Unspecified
(0.0000°N, 0.0000°E)
Time: 07:39:41
(UTC+02:00)

Milstar 3 - Visible Passes

Search period start: 18 September 2014 00:00
Search period end: 28 September 2014 00:00
Orbit: 1102 x 5144 km, 28.2° (Epoch: 01 September)

Date Brightness Start Highest point End Pass type
(mag) Time Alt. Az. Time Alt. Az. Time Alt. Az.
18 Sep 6.0 00:06:58 10° NW 00:24:51 57° NW 00:24:51 57° NW visible
18 Sep 5.9 03:42:19 44° SSE 03:42:19 44° SSE 03:55:31 10° SE visible
18 Sep 6.0 06:15:51 18° SW 06:28:14 26° SSW 06:40:33 10° SE visible
18 Sep 6.0 20:18:32 10° NW 20:32:32 30° NNE 20:53:09 12° ENE visible
18 Sep 5.7 23:03:39 10° NW 23:26:41 64° NNE 23:26:41 64° NNE visible
19 Sep 6.3 01:53:46 10° WNW 02:44:00 31° SE 02:52:28 10° SE visible
19 Sep 6.0 05:17:31 32° SW 05:22:20 33° SSW 05:38:36 10° SE visible
19 Sep 5.8 22:01:05 10° NW 22:21:42 52° NNE 22:28:35 47° ENE visible
20 Sep 6.2 00:48:35 10° WNW 01:45:37 17° SE 01:48:36 10° SE visible
20 Sep 6.0 04:19:08 42° SSW 04:19:08 42° SSW 04:36:18 10° SE visible
20 Sep 6.0 06:56:36 10° SW 07:12:09 22° S 07:22:05 10° SE visible
20 Sep 5.9 20:59:05 10° NW 21:15:47 40° NNE 21:30:33 26° ENE visible
20 Sep 5.8 23:44:39 10° NW 00:04:07 67° NW 00:04:07 67° NW visible
21 Sep 6.1 02:37:31 10° W 03:20:43 39° SSE 03:33:30 10° SE visible
21 Sep 6.1 05:54:14 19° SW 06:06:26 27° SSW 06:19:49 10° SE visible
21 Sep 5.9 19:57:32 10° NNW 20:10:28 30° NNE 20:31:59 10° E visible
21 Sep 5.6 22:41:40 10° NW 23:04:24 68° NNE 23:06:10 67° NE visible
22 Sep 6.5 01:31:03 10° WNW 02:22:16 28° SE 02:30:03 10° SE visible
22 Sep 6.1 04:55:46 32° SW 04:59:55 33° SSW 05:17:24 10° SE visible
22 Sep 5.7 21:39:25 10° NW 21:58:25 54° NNE 22:08:17 43° ENE visible
23 Sep 6.0 00:26:11 10° WNW 01:23:46 14° SE 01:25:45 10° SE visible
23 Sep 6.1 03:57:16 40° S 03:57:16 40° S 04:14:37 10° SE visible
23 Sep 6.0 06:32:57 10° SW 06:50:45 24° S 07:01:50 10° SE visible
23 Sep 5.7 20:37:45 10° NW 20:53:09 41° NNE 21:10:28 22° E visible
23 Sep 5.6 23:22:33 10° WNW 23:44:04 80° NW 23:44:04 80° NW visible
24 Sep 6.3 02:14:47 10° W 02:58:43 36° SSE 03:11:20 10° SE visible
24 Sep 6.2 05:32:13 21° SW 05:44:35 28° SSW 05:59:07 10° SE visible
24 Sep 5.5 22:19:52 10° NW 22:40:44 72° NNE 22:46:21 64° E visible
25 Sep 6.4 01:08:37 10° WNW 02:00:08 25° SE 02:07:24 10° SE visible
25 Sep 6.2 04:33:38 32° SSW 04:37:27 33° SSW 04:56:10 10° SE visible
25 Sep 5.9 07:18:29 10° SW 07:34:40 26° S 07:44:25 10° ESE visible
25 Sep 5.5 21:17:53 10° NW 21:35:17 57° NNE 21:48:43 37° E visible
26 Sep 5.8 00:04:02 10° WNW 01:01:31 12° SE 01:02:38 10° SE visible
26 Sep 6.2 03:35:00 38° S 03:35:00 38° S 03:52:51 10° SE visible
26 Sep 6.1 06:09:08 10° SW 06:29:16 27° S 06:41:33 10° SE visible
26 Sep 5.5 20:16:29 10° NW 20:30:36 43° NNE 20:51:11 16° E visible
26 Sep 5.5 23:00:41 10° WNW 23:23:10 89° SSW 23:24:48 84° SE visible
27 Sep 6.4 01:52:21 10° W 02:36:20 34° SSE 02:49:01 10° SE visible
27 Sep 6.2 05:09:49 22° SW 05:22:40 29° S 05:38:24 10° SE visible
27 Sep 5.4 21:58:14 10° NW 22:17:16 76° NNE 22:27:22 53° ESE visible
